Вернуться в каталог

CZ-6A DEB

АктивенSSO
NORAD 56261·DEBRIS·🇨🇳 China

Запущен Nov 11, 2022 с Taiyuan Satellite Launch Center

Loading…

Ближайшие Пролёты (ближайшие 24 часа)

TLE

СвежийSource: Space-Track

Эпоха: Sep 14, 2026, 01:16 UTC

1 56261U 22151ACD 26257.05313228  .00005050  00000-0  17650-2 0  9998
2 56261  98.7981 280.3836 0038225  32.4695 327.8830 14.35237081184742

Отслеживайте CZ-6A DEB в реальном времени с AllMySat

Download on the App Store